Year,Month,Day,Hour,Minute,Value (Times are PST for insolation in W/m^2)
2010,02,24,00,00,0.00
2010,02,24,00,01,0.00
2010,02,24,00,02,0.00
2010,02,24,00,03,0.00
2010,02,24,00,04,0.00
2010,02,24,00,05,0.00
2010,02,24,00,06,0.00
2010,02,24,00,07,0.00
2010,02,24,00,08,0.00
2010,02,24,00,09,0.00
2010,02,24,00,10,0.00
2010,02,24,00,11,0.00
2010,02,24,00,12,0.00
2010,02,24,00,13,0.00
2010,02,24,00,14,0.00
2010,02,24,00,15,0.00
2010,02,24,00,16,0.00
2010,02,24,00,17,0.00
2010,02,24,00,18,0.00
2010,02,24,00,19,0.00
2010,02,24,00,20,0.00
2010,02,24,00,21,0.00
2010,02,24,00,22,0.00
2010,02,24,00,23,0.00
2010,02,24,00,24,0.00
2010,02,24,00,25,0.00
2010,02,24,00,26,0.00
2010,02,24,00,27,0.00
2010,02,24,00,28,0.00
2010,02,24,00,29,0.00
2010,02,24,00,30,0.00
2010,02,24,00,31,0.00
2010,02,24,00,32,0.00
2010,02,24,00,33,0.00
2010,02,24,00,34,0.00
2010,02,24,00,35,0.00
2010,02,24,00,36,0.00
2010,02,24,00,37,0.00
2010,02,24,00,38,0.00
2010,02,24,00,39,0.00
2010,02,24,00,40,0.00
2010,02,24,00,41,0.00
2010,02,24,00,42,0.00
2010,02,24,00,43,0.00
2010,02,24,00,44,0.00
2010,02,24,00,45,0.00
2010,02,24,00,46,0.00
2010,02,24,00,47,0.00
2010,02,24,00,48,0.00
2010,02,24,00,49,0.00
2010,02,24,00,50,0.00
2010,02,24,00,51,0.00
2010,02,24,00,52,0.00
2010,02,24,00,53,0.00
2010,02,24,00,54,0.00
2010,02,24,00,55,0.00
2010,02,24,00,56,0.00
2010,02,24,00,57,0.00
2010,02,24,00,58,0.00
2010,02,24,00,59,0.00
2010,02,24,01,00,0.00
2010,02,24,01,01,0.00
2010,02,24,01,02,0.00
2010,02,24,01,03,0.00
2010,02,24,01,04,0.00
2010,02,24,01,05,0.00
2010,02,24,01,06,0.00
2010,02,24,01,07,0.00
2010,02,24,01,08,0.00
2010,02,24,01,09,0.00
2010,02,24,01,10,0.00
2010,02,24,01,11,0.00
2010,02,24,01,12,0.00
2010,02,24,01,13,0.00
2010,02,24,01,14,0.00
2010,02,24,01,15,0.00
2010,02,24,01,16,0.00
2010,02,24,01,17,0.00
2010,02,24,01,18,0.00
2010,02,24,01,19,0.00
2010,02,24,01,20,0.00
2010,02,24,01,21,0.00
2010,02,24,01,22,0.00
2010,02,24,01,23,0.00
2010,02,24,01,24,0.00
2010,02,24,01,25,0.00
2010,02,24,01,26,0.00
2010,02,24,01,27,0.00
2010,02,24,01,28,0.00
2010,02,24,01,29,0.00
2010,02,24,01,30,0.00
2010,02,24,01,31,0.00
2010,02,24,01,32,0.00
2010,02,24,01,33,0.00
2010,02,24,01,34,0.00
2010,02,24,01,35,0.00
2010,02,24,01,36,0.00
2010,02,24,01,37,0.00
2010,02,24,01,38,0.00
2010,02,24,01,39,0.00
2010,02,24,01,40,0.00
2010,02,24,01,41,0.00
2010,02,24,01,42,0.00
2010,02,24,01,43,0.00
2010,02,24,01,44,0.00
2010,02,24,01,45,0.00
2010,02,24,01,46,0.00
2010,02,24,01,47,0.00
2010,02,24,01,48,0.00
2010,02,24,01,49,0.00
2010,02,24,01,50,0.00
2010,02,24,01,51,0.00
2010,02,24,01,52,0.00
2010,02,24,01,53,0.00
2010,02,24,01,54,0.00
2010,02,24,01,55,0.00
2010,02,24,01,56,0.00
2010,02,24,01,57,0.00
2010,02,24,01,58,0.00
2010,02,24,01,59,0.00
2010,02,24,02,00,0.00
2010,02,24,02,01,0.00
2010,02,24,02,02,0.00
2010,02,24,02,03,0.00
2010,02,24,02,04,0.00
2010,02,24,02,05,0.00
2010,02,24,02,06,0.00
2010,02,24,02,07,0.00
2010,02,24,02,08,0.00
2010,02,24,02,09,0.00
2010,02,24,02,10,0.00
2010,02,24,02,11,0.00
2010,02,24,02,12,0.00
2010,02,24,02,13,0.00
2010,02,24,02,14,0.00
2010,02,24,02,15,0.00
2010,02,24,02,16,0.00
2010,02,24,02,17,0.00
2010,02,24,02,18,0.00
2010,02,24,02,19,0.00
2010,02,24,02,20,0.00
2010,02,24,02,21,0.00
2010,02,24,02,22,0.00
2010,02,24,02,23,0.00
2010,02,24,02,24,0.00
2010,02,24,02,25,0.00
2010,02,24,02,26,0.00
2010,02,24,02,27,0.00
2010,02,24,02,28,0.00
2010,02,24,02,29,0.00
2010,02,24,02,30,0.00
2010,02,24,02,31,0.00
2010,02,24,02,32,0.00
2010,02,24,02,33,0.00
2010,02,24,02,34,0.00
2010,02,24,02,35,0.00
2010,02,24,02,36,0.00
2010,02,24,02,37,0.00
2010,02,24,02,38,0.00
2010,02,24,02,39,0.00
2010,02,24,02,40,0.00
2010,02,24,02,41,0.00
2010,02,24,02,42,0.00
2010,02,24,02,43,0.00
2010,02,24,02,44,0.00
2010,02,24,02,45,0.00
2010,02,24,02,46,0.00
2010,02,24,02,47,0.00
2010,02,24,02,48,0.00
2010,02,24,02,49,0.00
2010,02,24,02,50,0.00
2010,02,24,02,51,0.00
2010,02,24,02,52,0.00
2010,02,24,02,53,0.00
2010,02,24,02,54,0.00
2010,02,24,02,55,0.00
2010,02,24,02,56,0.00
2010,02,24,02,57,0.00
2010,02,24,02,58,0.00
2010,02,24,02,59,0.00
2010,02,24,03,00,0.00
2010,02,24,03,01,0.00
2010,02,24,03,02,0.00
2010,02,24,03,03,0.00
2010,02,24,03,04,0.00
2010,02,24,03,05,0.00
2010,02,24,03,06,0.00
2010,02,24,03,07,0.00
2010,02,24,03,08,0.00
2010,02,24,03,09,0.00
2010,02,24,03,10,0.00
2010,02,24,03,11,0.00
2010,02,24,03,12,0.00
2010,02,24,03,13,0.00
2010,02,24,03,14,0.00
2010,02,24,03,15,0.00
2010,02,24,03,16,0.00
2010,02,24,03,17,0.00
2010,02,24,03,18,0.00
2010,02,24,03,19,0.00
2010,02,24,03,20,0.00
2010,02,24,03,21,0.00
2010,02,24,03,22,0.00
2010,02,24,03,23,0.00
2010,02,24,03,24,0.00
2010,02,24,03,25,0.00
2010,02,24,03,26,0.00
2010,02,24,03,27,0.00
2010,02,24,03,28,0.00
2010,02,24,03,29,0.00
2010,02,24,03,30,0.00
2010,02,24,03,31,0.00
2010,02,24,03,32,0.00
2010,02,24,03,33,0.00
2010,02,24,03,34,0.00
2010,02,24,03,35,0.00
2010,02,24,03,36,0.00
2010,02,24,03,37,0.00
2010,02,24,03,38,0.00
2010,02,24,03,39,0.00
2010,02,24,03,40,0.00
2010,02,24,03,41,0.00
2010,02,24,03,42,0.00
2010,02,24,03,43,0.00
2010,02,24,03,44,0.00
2010,02,24,03,45,0.00
2010,02,24,03,46,0.00
2010,02,24,03,47,0.00
2010,02,24,03,48,0.00
2010,02,24,03,49,0.00
2010,02,24,03,50,0.00
2010,02,24,03,51,0.00
2010,02,24,03,52,0.00
2010,02,24,03,53,0.00
2010,02,24,03,54,0.00
2010,02,24,03,55,0.00
2010,02,24,03,56,0.00
2010,02,24,03,57,0.00
2010,02,24,03,58,0.00
2010,02,24,03,59,0.00
2010,02,24,04,00,0.00
2010,02,24,04,01,0.00
2010,02,24,04,02,0.00
2010,02,24,04,03,0.00
2010,02,24,04,04,0.00
2010,02,24,04,05,0.00
2010,02,24,04,06,0.00
2010,02,24,04,07,0.00
2010,02,24,04,08,0.00
2010,02,24,04,09,0.00
2010,02,24,04,10,0.00
2010,02,24,04,11,0.00
2010,02,24,04,12,0.00
2010,02,24,04,13,0.00
2010,02,24,04,14,0.00
2010,02,24,04,15,0.00
2010,02,24,04,16,0.00
2010,02,24,04,17,0.00
2010,02,24,04,18,0.00
2010,02,24,04,19,0.00
2010,02,24,04,20,0.00
2010,02,24,04,21,0.00
2010,02,24,04,22,0.00
2010,02,24,04,23,0.00
2010,02,24,04,24,0.00
2010,02,24,04,25,0.00
2010,02,24,04,26,0.00
2010,02,24,04,27,0.00
2010,02,24,04,28,0.00
2010,02,24,04,29,0.00
2010,02,24,04,30,0.00
2010,02,24,04,31,0.00
2010,02,24,04,32,0.00
2010,02,24,04,33,0.00
2010,02,24,04,34,0.00
2010,02,24,04,35,0.00
2010,02,24,04,36,0.00
2010,02,24,04,37,0.00
2010,02,24,04,38,0.00
2010,02,24,04,39,0.00
2010,02,24,04,40,0.00
2010,02,24,04,41,0.00
2010,02,24,04,42,0.00
2010,02,24,04,43,0.00
2010,02,24,04,44,0.00
2010,02,24,04,45,0.00
2010,02,24,04,46,0.00
2010,02,24,04,47,0.00
2010,02,24,04,48,0.00
2010,02,24,04,49,0.00
2010,02,24,04,50,0.00
2010,02,24,04,51,0.00
2010,02,24,04,52,0.00
2010,02,24,04,53,0.00
2010,02,24,04,54,0.00
2010,02,24,04,55,0.00
2010,02,24,04,56,0.00
2010,02,24,04,57,0.00
2010,02,24,04,58,0.00
2010,02,24,04,59,0.00
2010,02,24,05,00,0.00
2010,02,24,05,01,0.00
2010,02,24,05,02,0.00
2010,02,24,05,03,0.00
2010,02,24,05,04,0.00
2010,02,24,05,05,0.00
2010,02,24,05,06,0.00
2010,02,24,05,07,0.00
2010,02,24,05,08,0.00
2010,02,24,05,09,0.00
2010,02,24,05,10,0.00
2010,02,24,05,11,0.00
2010,02,24,05,12,0.00
2010,02,24,05,13,0.00
2010,02,24,05,14,0.00
2010,02,24,05,15,0.00
2010,02,24,05,16,0.00
2010,02,24,05,17,0.00
2010,02,24,05,18,0.00
2010,02,24,05,19,0.00
2010,02,24,05,20,0.00
2010,02,24,05,21,0.00
2010,02,24,05,22,0.00
2010,02,24,05,23,0.00
2010,02,24,05,24,0.00
2010,02,24,05,25,0.00
2010,02,24,05,26,0.00
2010,02,24,05,27,0.00
2010,02,24,05,28,0.00
2010,02,24,05,29,0.00
2010,02,24,05,30,0.00
2010,02,24,05,31,0.00
2010,02,24,05,32,0.00
2010,02,24,05,33,0.00
2010,02,24,05,34,0.00
2010,02,24,05,35,0.00
2010,02,24,05,36,0.00
2010,02,24,05,37,0.00
2010,02,24,05,38,0.00
2010,02,24,05,39,0.00
2010,02,24,05,40,0.00
2010,02,24,05,41,0.00
2010,02,24,05,42,0.00
2010,02,24,05,43,0.00
2010,02,24,05,44,0.00
2010,02,24,05,45,0.00
2010,02,24,05,46,0.00
2010,02,24,05,47,0.00
2010,02,24,05,48,0.00
2010,02,24,05,49,0.00
2010,02,24,05,50,0.00
2010,02,24,05,51,0.00
2010,02,24,05,52,0.00
2010,02,24,05,53,0.00
2010,02,24,05,54,0.00
2010,02,24,05,55,0.00
2010,02,24,05,56,0.00
2010,02,24,05,57,0.00
2010,02,24,05,58,0.00
2010,02,24,05,59,0.00
2010,02,24,06,00,0.00
2010,02,24,06,01,0.00
2010,02,24,06,02,0.00
2010,02,24,06,03,0.00
2010,02,24,06,04,0.00
2010,02,24,06,05,0.00
2010,02,24,06,06,0.00
2010,02,24,06,07,0.00
2010,02,24,06,08,0.00
2010,02,24,06,09,0.00
2010,02,24,06,10,0.00
2010,02,24,06,11,0.00
2010,02,24,06,12,0.00
2010,02,24,06,13,0.00
2010,02,24,06,14,0.00
2010,02,24,06,15,0.00
2010,02,24,06,16,0.00
2010,02,24,06,17,0.00
2010,02,24,06,18,0.00
2010,02,24,06,19,0.00
2010,02,24,06,20,0.00
2010,02,24,06,21,0.00
2010,02,24,06,22,0.00
2010,02,24,06,23,0.00
2010,02,24,06,24,0.00
2010,02,24,06,25,0.00
2010,02,24,06,26,0.00
2010,02,24,06,27,0.00
2010,02,24,06,28,0.00
2010,02,24,06,29,0.00
2010,02,24,06,30,0.00
2010,02,24,06,31,0.00
2010,02,24,06,32,0.00
2010,02,24,06,33,0.00
2010,02,24,06,34,0.00
2010,02,24,06,35,0.00
2010,02,24,06,36,0.00
2010,02,24,06,37,0.00
2010,02,24,06,38,0.00
2010,02,24,06,39,0.00
2010,02,24,06,40,0.00
2010,02,24,06,41,0.00
2010,02,24,06,42,0.00
2010,02,24,06,43,0.00
2010,02,24,06,44,0.00
2010,02,24,06,45,0.00
2010,02,24,06,46,0.00
2010,02,24,06,47,0.00
2010,02,24,06,48,0.00
2010,02,24,06,49,0.00
2010,02,24,06,50,0.00
2010,02,24,06,51,0.00
2010,02,24,06,52,0.00
2010,02,24,06,53,0.00
2010,02,24,06,54,0.00
2010,02,24,06,55,0.00
2010,02,24,06,56,0.00
2010,02,24,06,57,0.00
2010,02,24,06,58,0.00
2010,02,24,06,59,0.00
2010,02,24,07,00,0.00
2010,02,24,07,01,0.00
2010,02,24,07,02,0.00
2010,02,24,07,03,0.00
2010,02,24,07,04,0.00
2010,02,24,07,05,0.00
2010,02,24,07,06,0.00
2010,02,24,07,07,0.00
2010,02,24,07,08,0.00
2010,02,24,07,09,0.00
2010,02,24,07,10,0.00
2010,02,24,07,11,0.00
2010,02,24,07,12,0.00
2010,02,24,07,13,0.00
2010,02,24,07,14,0.00
2010,02,24,07,15,0.00
2010,02,24,07,16,0.00
2010,02,24,07,17,0.00
2010,02,24,07,18,0.00
2010,02,24,07,19,0.00
2010,02,24,07,20,0.00
2010,02,24,07,21,0.00
2010,02,24,07,22,0.00
2010,02,24,07,23,0.00
2010,02,24,07,24,0.00
2010,02,24,07,25,0.00
2010,02,24,07,26,0.00
2010,02,24,07,27,0.00
2010,02,24,07,28,0.00
2010,02,24,07,29,2.90
2010,02,24,07,30,5.00
2010,02,24,07,31,5.00
2010,02,24,07,32,6.80
2010,02,24,07,33,7.00
2010,02,24,07,34,7.00
2010,02,24,07,35,7.00
2010,02,24,07,36,7.00
2010,02,24,07,37,6.50
2010,02,24,07,38,5.00
2010,02,24,07,39,6.10
2010,02,24,07,40,7.00
2010,02,24,07,41,7.00
2010,02,24,07,42,7.00
2010,02,24,07,43,7.00
2010,02,24,07,44,9.00
2010,02,24,07,45,7.00
2010,02,24,07,46,5.20
2010,02,24,07,47,7.00
2010,02,24,07,48,7.00
2010,02,24,07,49,7.70
2010,02,24,07,50,9.00
2010,02,24,07,51,9.00
2010,02,24,07,52,9.00
2010,02,24,07,53,9.00
2010,02,24,07,54,10.80
2010,02,24,07,55,12.00
2010,02,24,07,56,13.90
2010,02,24,07,57,13.80
2010,02,24,07,58,12.50
2010,02,24,07,59,14.60
2010,02,24,08,00,15.20
2010,02,24,08,01,13.10
2010,02,24,08,02,13.20
2010,02,24,08,03,14.00
2010,02,24,08,04,12.40
2010,02,24,08,05,13.80
2010,02,24,08,06,14.00
2010,02,24,08,07,15.90
2010,02,24,08,08,14.20
2010,02,24,08,09,16.00
2010,02,24,08,10,16.70
2010,02,24,08,11,18.40
2010,02,24,08,12,19.00
2010,02,24,08,13,20.20
2010,02,24,08,14,22.20
2010,02,24,08,15,23.00
2010,02,24,08,16,21.20
2010,02,24,08,17,19.30
2010,02,24,08,18,23.20
2010,02,24,08,19,26.00
2010,02,24,08,20,25.40
2010,02,24,08,21,23.60
2010,02,24,08,22,24.30
2010,02,24,08,23,23.00
2010,02,24,08,24,24.10
2010,02,24,08,25,25.00
2010,02,24,08,26,25.00
2010,02,24,08,27,25.80
2010,02,24,08,28,30.00
2010,02,24,08,29,26.40
2010,02,24,08,30,30.30
2010,02,24,08,31,32.00
2010,02,24,08,32,26.20
2010,02,24,08,33,26.70
2010,02,24,08,34,32.00
2010,02,24,08,35,30.80
2010,02,24,08,36,28.80
2010,02,24,08,37,26.40
2010,02,24,08,38,29.60
2010,02,24,08,39,33.00
2010,02,24,08,40,28.10
2010,02,24,08,41,25.10
2010,02,24,08,42,26.40
2010,02,24,08,43,27.00
2010,02,24,08,44,26.20
2010,02,24,08,45,28.90
2010,02,24,08,46,31.60
2010,02,24,08,47,34.40
2010,02,24,08,48,36.60
2010,02,24,08,49,31.70
2010,02,24,08,50,25.00
2010,02,24,08,51,26.40
2010,02,24,08,52,31.40
2010,02,24,08,53,25.30
2010,02,24,08,54,24.80
2010,02,24,08,55,29.60
2010,02,24,08,56,32.50
2010,02,24,08,57,35.00
2010,02,24,08,58,35.60
2010,02,24,08,59,33.50
2010,02,24,09,00,32.20
2010,02,24,09,01,28.60
2010,02,24,09,02,37.90
2010,02,24,09,03,54.20
2010,02,24,09,04,58.20
2010,02,24,09,05,64.00
2010,02,24,09,06,53.50
2010,02,24,09,07,45.60
2010,02,24,09,08,39.90
2010,02,24,09,09,38.20
2010,02,24,09,10,41.30
2010,02,24,09,11,56.10
2010,02,24,09,12,53.00
2010,02,24,09,13,54.00
2010,02,24,09,14,65.50
2010,02,24,09,15,69.80
2010,02,24,09,16,65.70
2010,02,24,09,17,58.00
2010,02,24,09,18,60.60
2010,02,24,09,19,58.50
2010,02,24,09,20,65.20
2010,02,24,09,21,73.90
2010,02,24,09,22,70.70
2010,02,24,09,23,74.00
2010,02,24,09,24,83.20
2010,02,24,09,25,95.40
2010,02,24,09,26,98.90
2010,02,24,09,27,98.30
2010,02,24,09,28,92.60
2010,02,24,09,29,92.80
2010,02,24,09,30,90.60
2010,02,24,09,31,95.20
2010,02,24,09,32,95.50
2010,02,24,09,33,82.50
2010,02,24,09,34,75.10
2010,02,24,09,35,63.20
2010,02,24,09,36,67.80
2010,02,24,09,37,73.20
2010,02,24,09,38,70.50
2010,02,24,09,39,76.90
2010,02,24,09,40,86.10
2010,02,24,09,41,88.00
2010,02,24,09,42,94.50
2010,02,24,09,43,97.00
2010,02,24,09,44,101.40
2010,02,24,09,45,80.60
2010,02,24,09,46,86.90
2010,02,24,09,47,104.30
2010,02,24,09,48,123.20
2010,02,24,09,49,115.10
2010,02,24,09,50,112.30
2010,02,24,09,51,100.70
2010,02,24,09,52,70.40
2010,02,24,09,53,55.00
2010,02,24,09,54,58.80
2010,02,24,09,55,61.80
2010,02,24,09,56,64.60
2010,02,24,09,57,62.00
2010,02,24,09,58,67.30
2010,02,24,09,59,71.80
2010,02,24,10,00,76.80
2010,02,24,10,01,69.30
2010,02,24,10,02,88.40
2010,02,24,10,03,109.90
2010,02,24,10,04,106.20
2010,02,24,10,05,105.00
2010,02,24,10,06,108.50
2010,02,24,10,07,92.80
2010,02,24,10,08,109.00
2010,02,24,10,09,118.30
2010,02,24,10,10,157.20
2010,02,24,10,11,139.00
2010,02,24,10,12,120.10
2010,02,24,10,13,125.60
2010,02,24,10,14,153.30
2010,02,24,10,15,180.00
2010,02,24,10,16,152.40
2010,02,24,10,17,130.80
2010,02,24,10,18,155.00
2010,02,24,10,19,173.60
2010,02,24,10,20,148.00
2010,02,24,10,21,148.00
2010,02,24,10,22,139.60
2010,02,24,10,23,138.50
2010,02,24,10,24,136.60
2010,02,24,10,25,129.10
2010,02,24,10,26,160.60
2010,02,24,10,27,174.40
2010,02,24,10,28,164.50
2010,02,24,10,29,146.90
2010,02,24,10,30,109.50
2010,02,24,10,31,84.00
2010,02,24,10,32,84.00
2010,02,24,10,33,110.40
2010,02,24,10,34,172.00
2010,02,24,10,35,172.00
2010,02,24,10,36,172.00
2010,02,24,10,37,153.60
2010,02,24,10,38,146.00
2010,02,24,10,39,146.00
2010,02,24,10,40,87.30
2010,02,24,10,41,102.70
2010,02,24,10,42,104.00
2010,02,24,10,43,143.50
2010,02,24,10,44,254.60
2010,02,24,10,45,211.00
2010,02,24,10,46,184.90
2010,02,24,10,47,153.00
2010,02,24,10,48,153.00
2010,02,24,10,49,153.00
2010,02,24,10,50,153.00
2010,02,24,10,51,439.00
2010,02,24,10,52,441.90
2010,02,24,10,53,392.00
2010,02,24,10,54,392.00
2010,02,24,10,55,392.00
2010,02,24,10,56,302.20
2010,02,24,10,57,153.60
2010,02,24,10,58,119.20
2010,02,24,10,59,127.30
2010,02,24,11,00,128.90
2010,02,24,11,01,114.40
2010,02,24,11,02,112.70
2010,02,24,11,03,145.70
2010,02,24,11,04,146.30
2010,02,24,11,05,186.00
2010,02,24,11,06,186.00
2010,02,24,11,07,186.00
2010,02,24,11,08,186.00
2010,02,24,11,09,186.00
2010,02,24,11,10,186.00
2010,02,24,11,11,459.00
2010,02,24,11,12,543.00
2010,02,24,11,13,543.00
2010,02,24,11,14,543.00
2010,02,24,11,15,543.00
2010,02,24,11,16,461.10
2010,02,24,11,17,214.50
2010,02,24,11,18,260.00
2010,02,24,11,19,402.40
2010,02,24,11,20,554.30
2010,02,24,11,21,546.10
2010,02,24,11,22,529.90
2010,02,24,11,23,518.40
2010,02,24,11,24,527.20
2010,02,24,11,25,529.00
2010,02,24,11,26,529.00
2010,02,24,11,27,459.00
2010,02,24,11,28,214.00
2010,02,24,11,29,214.00
2010,02,24,11,30,214.00
2010,02,24,11,31,214.00
2010,02,24,11,32,214.00
2010,02,24,11,33,214.00
2010,02,24,11,34,214.00
2010,02,24,11,35,214.00
2010,02,24,11,36,214.00
2010,02,24,11,37,214.00
2010,02,24,11,38,214.00
2010,02,24,11,39,228.20
2010,02,24,11,40,260.70
2010,02,24,11,41,287.90
2010,02,24,11,42,339.00
2010,02,24,11,43,339.00
2010,02,24,11,44,472.00
2010,02,24,11,45,607.10
2010,02,24,11,46,612.00
2010,02,24,11,47,171.20
2010,02,24,11,48,148.00
2010,02,24,11,49,157.90
2010,02,24,11,50,205.90
2010,02,24,11,51,229.20
2010,02,24,11,52,205.40
2010,02,24,11,53,196.40
2010,02,24,11,54,206.80
2010,02,24,11,55,230.60
2010,02,24,11,56,225.60
2010,02,24,11,57,191.90
2010,02,24,11,58,245.10
2010,02,24,11,59,302.60
2010,02,24,12,00,698.00
2010,02,24,12,01,642.00
2010,02,24,12,02,642.00
2010,02,24,12,03,397.20
2010,02,24,12,04,106.80
2010,02,24,12,05,156.20
2010,02,24,12,06,185.00
2010,02,24,12,07,185.00
2010,02,24,12,08,185.00
2010,02,24,12,09,377.70
2010,02,24,12,10,439.00
2010,02,24,12,11,439.00
2010,02,24,12,12,482.50
2010,02,24,12,13,584.00
2010,02,24,12,14,361.10
2010,02,24,12,15,152.60
2010,02,24,12,16,175.10
2010,02,24,12,17,185.90
2010,02,24,12,18,185.00
2010,02,24,12,19,196.90
2010,02,24,12,20,176.00
2010,02,24,12,21,197.60
2010,02,24,12,22,215.40
2010,02,24,12,23,188.80
2010,02,24,12,24,166.50
2010,02,24,12,25,166.40
2010,02,24,12,26,166.10
2010,02,24,12,27,162.00
2010,02,24,12,28,169.40
2010,02,24,12,29,178.10
2010,02,24,12,30,179.00
2010,02,24,12,31,182.50
2010,02,24,12,32,169.30
2010,02,24,12,33,140.60
2010,02,24,12,34,113.80
2010,02,24,12,35,90.60
2010,02,24,12,36,75.20
2010,02,24,12,37,68.30
2010,02,24,12,38,65.60
2010,02,24,12,39,65.00
2010,02,24,12,40,73.80
2010,02,24,12,41,90.00
2010,02,24,12,42,100.30
2010,02,24,12,43,106.50
2010,02,24,12,44,120.10
2010,02,24,12,45,134.00
2010,02,24,12,46,169.40
2010,02,24,12,47,252.30
2010,02,24,12,48,237.70
2010,02,24,12,49,193.80
2010,02,24,12,50,180.60
2010,02,24,12,51,187.80
2010,02,24,12,52,209.00
2010,02,24,12,53,250.50
2010,02,24,12,54,253.50
2010,02,24,12,55,219.20
2010,02,24,12,56,217.20
2010,02,24,12,57,224.90
2010,02,24,12,58,231.40
2010,02,24,12,59,225.50
2010,02,24,13,00,223.00
2010,02,24,13,01,223.00
2010,02,24,13,02,224.90
2010,02,24,13,03,223.00
2010,02,24,13,04,220.90
2010,02,24,13,05,217.80
2010,02,24,13,06,216.00
2010,02,24,13,07,217.40
2010,02,24,13,08,220.00
2010,02,24,13,09,220.40
2010,02,24,13,10,223.40
2010,02,24,13,11,231.40
2010,02,24,13,12,235.60
2010,02,24,13,13,244.00
2010,02,24,13,14,239.00
2010,02,24,13,15,258.80
2010,02,24,13,16,284.30
2010,02,24,13,17,258.60
2010,02,24,13,18,257.70
2010,02,24,13,19,264.90
2010,02,24,13,20,253.10
2010,02,24,13,21,244.60
2010,02,24,13,22,264.10
2010,02,24,13,23,244.60
2010,02,24,13,24,224.60
2010,02,24,13,25,225.00
2010,02,24,13,26,235.00
2010,02,24,13,27,224.60
2010,02,24,13,28,223.00
2010,02,24,13,29,223.00
2010,02,24,13,30,223.00
2010,02,24,13,31,220.40
2010,02,24,13,32,218.00
2010,02,24,13,33,218.00
2010,02,24,13,34,220.50
2010,02,24,13,35,220.10
2010,02,24,13,36,220.00
2010,02,24,13,37,225.80
2010,02,24,13,38,239.60
2010,02,24,13,39,240.20
2010,02,24,13,40,228.90
2010,02,24,13,41,233.10
2010,02,24,13,42,230.40
2010,02,24,13,43,230.90
2010,02,24,13,44,224.90
2010,02,24,13,45,223.00
2010,02,24,13,46,234.60
2010,02,24,13,47,218.00
2010,02,24,13,48,208.90
2010,02,24,13,49,209.40
2010,02,24,13,50,216.90
2010,02,24,13,51,193.00
2010,02,24,13,52,181.40
2010,02,24,13,53,179.00
2010,02,24,13,54,181.20
2010,02,24,13,55,185.10
2010,02,24,13,56,190.90
2010,02,24,13,57,200.20
2010,02,24,13,58,200.00
2010,02,24,13,59,209.40
2010,02,24,14,00,216.00
2010,02,24,14,01,218.20
2010,02,24,14,02,243.20
2010,02,24,14,03,285.50
2010,02,24,14,04,309.50
2010,02,24,14,05,306.80
2010,02,24,14,06,282.30
2010,02,24,14,07,329.50
2010,02,24,14,08,332.20
2010,02,24,14,09,359.00
2010,02,24,14,10,329.50
2010,02,24,14,11,318.90
2010,02,24,14,12,297.20
2010,02,24,14,13,285.60
2010,02,24,14,14,291.80
2010,02,24,14,15,285.80
2010,02,24,14,16,259.30
2010,02,24,14,17,245.10
2010,02,24,14,18,253.90
2010,02,24,14,19,263.20
2010,02,24,14,20,295.50
2010,02,24,14,21,271.00
2010,02,24,14,22,271.00
2010,02,24,14,23,266.10
2010,02,24,14,24,248.20
2010,02,24,14,25,244.00
2010,02,24,14,26,238.70
2010,02,24,14,27,236.80
2010,02,24,14,28,236.80
2010,02,24,14,29,225.30
2010,02,24,14,30,215.00
2010,02,24,14,31,206.00
2010,02,24,14,32,203.90
2010,02,24,14,33,201.70
2010,02,24,14,34,198.80
2010,02,24,14,35,195.00
2010,02,24,14,36,195.00
2010,02,24,14,37,193.60
2010,02,24,14,38,189.40
2010,02,24,14,39,183.10
2010,02,24,14,40,176.10
2010,02,24,14,41,174.00
2010,02,24,14,42,178.00
2010,02,24,14,43,182.80
2010,02,24,14,44,177.50
2010,02,24,14,45,164.80
2010,02,24,14,46,146.20
2010,02,24,14,47,131.70
2010,02,24,14,48,124.30
2010,02,24,14,49,116.50
2010,02,24,14,50,110.40
2010,02,24,14,51,104.80
2010,02,24,14,52,104.00
2010,02,24,14,53,106.60
2010,02,24,14,54,106.90
2010,02,24,14,55,103.50
2010,02,24,14,56,99.40
2010,02,24,14,57,94.90
2010,02,24,14,58,89.10
2010,02,24,14,59,85.10
2010,02,24,15,00,80.90
2010,02,24,15,01,74.10
2010,02,24,15,02,69.90
2010,02,24,15,03,69.90
2010,02,24,15,04,72.00
2010,02,24,15,05,70.00
2010,02,24,15,06,70.70
2010,02,24,15,07,76.00
2010,02,24,15,08,75.00
2010,02,24,15,09,68.00
2010,02,24,15,10,58.50
2010,02,24,15,11,50.80
2010,02,24,15,12,52.20
2010,02,24,15,13,61.00
2010,02,24,15,14,74.50
2010,02,24,15,15,76.00
2010,02,24,15,16,75.80
2010,02,24,15,17,71.50
2010,02,24,15,18,68.50
2010,02,24,15,19,67.00
2010,02,24,15,20,69.80
2010,02,24,15,21,80.40
2010,02,24,15,22,102.50
2010,02,24,15,23,168.20
2010,02,24,15,24,199.90
2010,02,24,15,25,212.60
2010,02,24,15,26,217.40
2010,02,24,15,27,215.80
2010,02,24,15,28,210.70
2010,02,24,15,29,198.10
2010,02,24,15,30,188.10
2010,02,24,15,31,172.60
2010,02,24,15,32,157.70
2010,02,24,15,33,149.10
2010,02,24,15,34,137.50
2010,02,24,15,35,123.30
2010,02,24,15,36,113.90
2010,02,24,15,37,113.00
2010,02,24,15,38,104.20
2010,02,24,15,39,99.20
2010,02,24,15,40,93.90
2010,02,24,15,41,90.70
2010,02,24,15,42,89.30
2010,02,24,15,43,85.90
2010,02,24,15,44,83.40
2010,02,24,15,45,83.70
2010,02,24,15,46,87.30
2010,02,24,15,47,90.40
2010,02,24,15,48,97.00
2010,02,24,15,49,98.10
2010,02,24,15,50,100.00
2010,02,24,15,51,100.00
2010,02,24,15,52,99.40
2010,02,24,15,53,98.00
2010,02,24,15,54,98.00
2010,02,24,15,55,99.10
2010,02,24,15,56,101.40
2010,02,24,15,57,102.00
2010,02,24,15,58,102.00
2010,02,24,15,59,102.00
2010,02,24,16,00,102.10
2010,02,24,16,01,103.70
2010,02,24,16,02,101.50
2010,02,24,16,03,100.60
2010,02,24,16,04,102.00
2010,02,24,16,05,100.90
2010,02,24,16,06,98.90
2010,02,24,16,07,95.90
2010,02,24,16,08,91.10
2010,02,24,16,09,84.70
2010,02,24,16,10,83.00
2010,02,24,16,11,81.00
2010,02,24,16,12,79.00
2010,02,24,16,13,79.00
2010,02,24,16,14,79.00
2010,02,24,16,15,79.80
2010,02,24,16,16,81.90
2010,02,24,16,17,81.70
2010,02,24,16,18,78.10
2010,02,24,16,19,77.00
2010,02,24,16,20,92.90
2010,02,24,16,21,108.60
2010,02,24,16,22,78.60
2010,02,24,16,23,116.40
2010,02,24,16,24,184.80
2010,02,24,16,25,174.40
2010,02,24,16,26,110.00
2010,02,24,16,27,97.60
2010,02,24,16,28,129.30
2010,02,24,16,29,116.80
2010,02,24,16,30,88.50
2010,02,24,16,31,90.50
2010,02,24,16,32,91.00
2010,02,24,16,33,180.60
2010,02,24,16,34,173.50
2010,02,24,16,35,160.30
2010,02,24,16,36,141.90
2010,02,24,16,37,152.90
2010,02,24,16,38,148.80
2010,02,24,16,39,115.50
2010,02,24,16,40,78.80
2010,02,24,16,41,65.90
2010,02,24,16,42,62.40
2010,02,24,16,43,58.00
2010,02,24,16,44,55.90
2010,02,24,16,45,53.90
2010,02,24,16,46,52.60
2010,02,24,16,47,53.30
2010,02,24,16,48,58.00
2010,02,24,16,49,56.90
2010,02,24,16,50,54.80
2010,02,24,16,51,52.20
2010,02,24,16,52,52.60
2010,02,24,16,53,53.00
2010,02,24,16,54,53.00
2010,02,24,16,55,50.90
2010,02,24,16,56,49.00
2010,02,24,16,57,49.00
2010,02,24,16,58,49.00
2010,02,24,16,59,47.80
2010,02,24,17,00,44.90
2010,02,24,17,01,44.00
2010,02,24,17,02,45.30
2010,02,24,17,03,46.70
2010,02,24,17,04,46.20
2010,02,24,17,05,46.00
2010,02,24,17,06,44.10
2010,02,24,17,07,44.00
2010,02,24,17,08,44.00
2010,02,24,17,09,43.40
2010,02,24,17,10,42.00
2010,02,24,17,11,40.90
2010,02,24,17,12,39.40
2010,02,24,17,13,36.60
2010,02,24,17,14,33.50
2010,02,24,17,15,33.00
2010,02,24,17,16,33.00
2010,02,24,17,17,33.00
2010,02,24,17,18,33.40
2010,02,24,17,19,35.00
2010,02,24,17,20,35.00
2010,02,24,17,21,35.00
2010,02,24,17,22,34.10
2010,02,24,17,23,33.00
2010,02,24,17,24,32.30
2010,02,24,17,25,32.00